TimeCDT,TemperatureF,Dew PointF,Humidity,Sea Level PressureIn,VisibilityMPH,Wind Direction,Wind SpeedMPH,Gust SpeedMPH,PrecipitationIn,Events,Conditions,WindDirDegrees,DateUTC
12:58 AM,79.9,58.3,48,30.04,10.0,ESE,12.7,-,N/A,,Clear,110,2013-09-06 05:58:00
1:58 AM,77.5,59.0,53,30.05,10.0,ESE,6.9,-,N/A,,Clear,110,2013-09-06 06:58:00
2:58 AM,77.2,59.0,53,30.03,10.0,ESE,6.9,-,N/A,,Clear,110,2013-09-06 07:58:00
3:58 AM,75.2,59.2,57,30.02,10.0,SE,4.6,-,N/A,,Clear,130,2013-09-06 08:58:00
4:58 AM,73.0,59.0,61,30.02,10.0,ESE,3.5,-,N/A,,Clear,110,2013-09-06 09:58:00
5:58 AM,72.7,59.7,64,30.03,10.0,East,3.5,-,N/A,,Clear,90,2013-09-06 10:58:00
6:58 AM,71.4,59.4,66,30.05,10.0,ESE,2.3,-,N/A,,Clear,110,2013-09-06 11:58:00
7:58 AM,72.0,59.7,65,30.06,10.0,East,2.3,-,N/A,,Clear,90,2013-09-06 12:58:00
8:58 AM,77.4,60.6,56,30.06,10.0,SE,4.6,-,N/A,,Clear,130,2013-09-06 13:58:00
9:58 AM,83.5,62.2,49,30.06,10.0,South,5.8,-,N/A,,Clear,170,2013-09-06 14:58:00
10:58 AM,91.4,63.0,39,30.06,10.0,South,4.6,-,N/A,,Clear,190,2013-09-06 15:58:00
11:58 AM,94.8,61.9,33,30.05,10.0,WSW,9.2,-,N/A,,Clear,240,2013-09-06 16:58:00
12:58 PM,96.6,60.6,30,30.02,10.0,Variable,1.2,-,N/A,,Clear,0,2013-09-06 17:58:00
1:58 PM,97.5,58.8,28,30.00,10.0,Variable,6.9,-,N/A,,Clear,0,2013-09-06 18:58:00
2:58 PM,97.9,59.2,28,29.98,10.0,East,6.9,-,N/A,,Partly Cloudy,80,2013-09-06 19:58:00
3:58 PM,100.0,58.1,25,29.95,10.0,ESE,8.1,-,N/A,,Partly Cloudy,120,2013-09-06 20:58:00
4:58 PM,100.4,57.9,24,29.93,10.0,Variable,3.5,-,N/A,,Partly Cloudy,0,2013-09-06 21:58:00
5:58 PM,99.3,59.0,26,29.92,10.0,SE,9.2,-,N/A,,Clear,140,2013-09-06 22:58:00
6:58 PM,97.0,59.4,29,29.92,10.0,SE,12.7,-,N/A,,Clear,140,2013-09-06 23:58:00
7:58 PM,92.7,58.5,32,29.92,10.0,SE,8.1,-,N/A,,Clear,130,2013-09-07 00:58:00
8:58 PM,88.9,58.6,36,29.93,10.0,ESE,9.2,-,N/A,,Clear,120,2013-09-07 01:58:00
9:58 PM,87.4,61.5,42,29.95,10.0,ESE,8.1,-,N/A,,Clear,120,2013-09-07 02:58:00
10:58 PM,84.9,62.1,46,29.95,10.0,SE,11.5,-,N/A,,Clear,140,2013-09-07 03:58:00
11:58 PM,80.6,61.7,52,29.96,10.0,SE,5.8,-,N/A,,Clear,140,2013-09-07 04:58:00